Regional Weather Roundup
Issued by NWS

Home | Current Version | Previous Version | Text Only | Print | Product List | Glossary On
Versions: 1 2 3 4 5 6 7 8 9 10 11 12 13 14 15 16 17 18 19 20 21 22 23 24 25 26 27 28 29 30 31 32 33 34 35 36 37 38 39 40 41 42 43 44 45 46 47 48 49 50
000
ASUS43 KLSX 312307
RWRMO

WEATHER SUMMARY FOR MISSOURI
NATIONAL WEATHER SERVICE SPRINGFIELD MO
600 PM CDT FRI OCT 31 2014

NOTE: "FAIR" INDICATES FEW OR NO CLOUDS BELOW 12,000 FEET WITH NO
       SIGNIFICANT WEATHER AND/OR OBSTRUCTIONS TO VISIBILITY.
       CURRENT SKY AND/OR WEATHER CONDITIONS ARE NOT AVAILABLE FOR
       CHILLICOTHE AND FARMINGTON.

MOZ001>031-035>038-043-044-053-054-010000-
...NORTHERN AND WESTERN MISSOURI...

CITY           SKY/WX    TMP DP  RH WIND       PRES   REMARKS
KANSAS CTY INT PTCLDY    40  20  44 N8        30.44S
KANSAS C DTWN  CLEAR     45  16  31 N7        30.44F
LEE`S SUMMIT   CLEAR     42  16  34 N10       30.44S
ST JOSEPH      CLEAR     43  17  35 N8        30.46S
CHILLICOTHE      N/A     43  18  36 N7        30.45S
KIRKSVILLE     CLEAR     39  20  46 N9        30.42R

$$
MOZ066>068-077>081-088>096-101>105-010000-
...SOUTHWEST MISSOURI...

CITY           SKY/WX    TMP DP  RH WIND       PRES   REMARKS
SPRINGFIELD    CLEAR     43  19  38 N15       30.37R
JOPLIN         CLEAR     44  18  35 N8        30.42R

$$
MOZ032>034-039>042-045>050-055>058-069>072-010000-
...CENTRAL MISSOURI...

CITY           SKY/WX    TMP DP  RH WIND       PRES   REMARKS
COLUMBIA       CLEAR     41  18  39 N10       30.38R
JEFFERSON CITY CLEAR     45  14  28 N15G21    30.39R
ROLLA          CLEAR     41  16  36 NW14      30.33R
SEDALIA        CLEAR     43  17  35 N9        30.42S
WHITEMAN AFB   CLEAR     42  16  34 N8        30.41S
WARRENSBURG    CLEAR     41  16  36 N9        30.43S
OSAGE BEACH    CLEAR     43  16  33 N7        30.38S

$$
MOZ051-052-059>065-010000-
...EAST CENTRAL MISSOURI...

CITY           SKY/WX    TMP DP  RH WIND       PRES   REMARKS
ST LOUIS INTL  PTCLDY    43  20  39 NW13G23   30.33R
SPIRIT OF STL  CLEAR     43  19  38 N13G22    30.34R
ST CHARLES     CLEAR     43  21  41 NW16G26   30.34R

$$
MOZ072>076-082>087-097>100-106>115-010000-
...SOUTH CENTRAL AND SOUTHEAST MISSOURI...

CITY           SKY/WX    TMP DP  RH WIND       PRES   REMARKS
CAPE GIRARDEAU CLEAR     45  21  38 N17G25    30.27R
FARMINGTON     CLEAR     43  16  33 NW13G20   30.31R
POPLAR BLUFF   CLEAR     47  18  31 N17G24    30.27R
WEST PLAINS    CLEAR     43  18  36 N10G20    30.32R

$$



USA.gov is the U.S. government's official web portal to all federal, state and local government web resources and services.